Terminal Aerodrome Forecast
Issued by NWS Northern Indiana

Home | Current Version | Previous Version | Text Only | Print | Product List | Glossary Off
Versions: 1 2 3 4 5 6 7 8 9 10 11 12 13 14

000
FTUS43 KIWX 240250 AAA
TAFFWA
TAF AMD
KFWA 240250Z 2403/2424 16010KT P6SM -SHRA OVC040 WS020/21050KT
      TEMPO 2403/2404 3SM TSRA OVC030CB
     FM240600 19012KT P6SM SCT050 OVC100 WS020/22060KT
     FM241000 21014KT P6SM BKN100 WS020/24055KT
     FM241500 22018G26KT P6SM BKN150
     FM242000 22020G30KT P6SM SCT020 BKN150
      TEMPO 2420/2423 BKN020
     FM242300 21014KT P6SM BKN015=

USA.gov is the U.S. government's official web portal to all federal, state and local government web resources and services.